Time,TemperatureF,DewpointF,PressureIn,WindDirection,WindDirectionDegrees,WindSpeedMPH,WindSpeedGustMPH,Humidity,HourlyPrecipIn,Conditions,Clouds,dailyrainin,SoftwareType,DateUTC
2013-03-15 00:03:00,15.0,8.0,29.55,SSW,201,1.0,-999.0,73,-99.99,,,-99.99,,2013-03-15 04:03:00,
2013-03-15 00:13:00,15.0,8.0,29.55,SSW,201,1.0,-999.0,73,-99.99,,,-99.99,,2013-03-15 04:13:00,
2013-03-15 00:23:00,14.0,7.0,29.55,SSW,203,0.0,-999.0,73,-99.99,,,-99.99,,2013-03-15 04:23:00,
2013-03-15 00:33:00,14.0,7.0,29.55,SSW,203,0.0,-999.0,73,-99.99,,,-99.99,,2013-03-15 04:33:00,
2013-03-15 00:43:00,14.0,7.0,29.55,SSW,203,0.0,-999.0,73,-99.99,,,-99.99,,2013-03-15 04:43:00,
2013-03-15 00:53:00,15.0,9.0,29.51,ESE,114,1.0,-999.0,76,-99.99,,,-99.99,,2013-03-15 04:53:00,
2013-03-15 01:02:00,14.0,8.0,29.55,ESE,114,0.0,-999.0,76,-99.99,,,-99.99,,2013-03-15 05:02:00,
2013-03-15 01:12:00,14.0,8.0,29.55,ESE,114,0.0,-999.0,76,-99.99,,,-99.99,,2013-03-15 05:12:00,
2013-03-15 01:23:00,14.0,8.0,29.51,SSE,159,0.0,-999.0,78,-99.99,,,-99.99,,2013-03-15 05:23:00,
2013-03-15 01:32:00,14.0,9.0,29.55,SSW,197,0.0,-999.0,79,-99.99,,,-99.99,,2013-03-15 05:32:00,
2013-03-15 01:42:00,14.0,9.0,29.55,SSW,197,0.0,-999.0,79,-99.99,,,-99.99,,2013-03-15 05:42:00,
2013-03-15 01:52:00,14.0,9.0,29.51,East,87,0.0,-999.0,79,-99.99,,,-99.99,,2013-03-15 05:52:00,
2013-03-15 02:02:00,14.0,8.0,29.56,SSW,201,1.0,-999.0,77,-99.99,,,-99.99,,2013-03-15 06:02:00,
2013-03-15 02:12:00,14.0,8.0,29.56,SSW,201,1.0,-999.0,77,-99.99,,,-99.99,,2013-03-15 06:12:00,
2013-03-15 02:22:00,14.0,8.0,29.51,SSW,198,1.0,-999.0,76,-99.99,,,-99.99,,2013-03-15 06:22:00,
2013-03-15 02:32:00,14.0,8.0,29.55,SE,128,1.0,-999.0,75,-99.99,,,-99.99,,2013-03-15 06:32:00,
2013-03-15 02:42:00,14.0,8.0,29.55,SE,128,1.0,-999.0,75,-99.99,,,-99.99,,2013-03-15 06:42:00,
2013-03-15 02:53:00,13.0,7.0,29.56,ESE,120,0.0,-999.0,76,-99.99,,,-99.99,,2013-03-15 06:53:00,
2013-03-15 03:02:00,13.0,7.0,29.56,ESE,120,0.0,-999.0,76,-99.99,,,-99.99,,2013-03-15 07:02:00,
2013-03-15 03:12:00,13.0,7.0,29.56,ESE,120,0.0,-999.0,76,-99.99,,,-99.99,,2013-03-15 07:12:00,
2013-03-15 03:22:00,13.0,8.0,29.51,WSW,243,1.0,-999.0,79,-99.99,,,-99.99,,2013-03-15 07:22:00,
2013-03-15 03:32:00,13.0,8.0,29.55,SE,139,0.0,-999.0,79,-99.99,,,-99.99,,2013-03-15 07:32:00,
2013-03-15 03:42:00,13.0,8.0,29.55,SE,139,0.0,-999.0,79,-99.99,,,-99.99,,2013-03-15 07:42:00,
2013-03-15 03:52:00,13.0,8.0,29.51,ESE,116,0.0,-999.0,81,-99.99,,,-99.99,,2013-03-15 07:52:00,
2013-03-15 04:02:00,13.0,8.0,29.55,ESE,116,0.0,-999.0,81,-99.99,,,-99.99,,2013-03-15 08:02:00,
2013-03-15 04:12:00,13.0,8.0,29.55,ESE,116,0.0,-999.0,81,-99.99,,,-99.99,,2013-03-15 08:12:00,
2013-03-15 04:23:00,13.0,9.0,29.50,ESE,116,0.0,-999.0,82,-99.99,,,-99.99,,2013-03-15 08:23:00,
2013-03-15 04:33:00,12.0,7.0,29.54,SSW,199,1.0,-999.0,80,-99.99,,,-99.99,,2013-03-15 08:33:00,
2013-03-15 04:42:00,12.0,7.0,29.54,SSW,199,1.0,-999.0,80,-99.99,,,-99.99,,2013-03-15 08:42:00,
2013-03-15 04:52:00,13.0,7.0,29.50,SSE,159,0.0,-999.0,78,-99.99,,,-99.99,,2013-03-15 08:52:00,
2013-03-15 05:02:00,12.0,6.0,29.55,SE,133,0.0,-999.0,77,-99.99,,,-99.99,,2013-03-15 09:02:00,
2013-03-15 05:12:00,12.0,6.0,29.55,SE,133,0.0,-999.0,77,-99.99,,,-99.99,,2013-03-15 09:12:00,
2013-03-15 05:22:00,13.0,7.0,29.54,SE,139,0.0,-999.0,75,-99.99,,,-99.99,,2013-03-15 09:22:00,
2013-03-15 05:33:00,13.0,7.0,29.54,SE,139,0.0,-999.0,75,-99.99,,,-99.99,,2013-03-15 09:33:00,
2013-03-15 05:43:00,13.0,7.0,29.54,SE,139,0.0,-999.0,75,-99.99,,,-99.99,,2013-03-15 09:43:00,
2013-03-15 05:53:00,13.0,7.0,29.50,South,173,1.0,-999.0,75,-99.99,,,-99.99,,2013-03-15 09:53:00,
2013-03-15 06:03:00,13.0,7.0,29.55,ENE,76,0.0,-999.0,75,-99.99,,,-99.99,,2013-03-15 10:03:00,
2013-03-15 06:13:00,13.0,7.0,29.55,ENE,76,0.0,-999.0,75,-99.99,,,-99.99,,2013-03-15 10:13:00,
2013-03-15 06:23:00,13.0,6.0,29.50,South,172,0.0,-999.0,74,-99.99,,,-99.99,,2013-03-15 10:23:00,
2013-03-15 06:33:00,12.0,6.0,29.55,South,172,0.0,-999.0,75,-99.99,,,-99.99,,2013-03-15 10:33:00,
2013-03-15 06:43:00,12.0,6.0,29.55,South,172,0.0,-999.0,75,-99.99,,,-99.99,,2013-03-15 10:43:00,
2013-03-15 06:52:00,13.0,7.0,29.51,South,172,0.0,-999.0,75,-99.99,,,-99.99,,2013-03-15 10:52:00,
2013-03-15 07:03:00,12.0,5.0,29.55,South,172,0.0,-999.0,74,-99.99,,,-99.99,,2013-03-15 11:03:00,
2013-03-15 07:12:00,12.0,5.0,29.55,South,172,0.0,-999.0,74,-99.99,,,-99.99,,2013-03-15 11:12:00,
2013-03-15 07:23:00,12.0,6.0,29.50,South,172,0.0,-999.0,78,-99.99,,,-99.99,,2013-03-15 11:23:00,
2013-03-15 07:32:00,12.0,6.0,29.54,SSE,156,0.0,-999.0,76,-99.99,,,-99.99,,2013-03-15 11:32:00,
2013-03-15 07:42:00,12.0,6.0,29.54,SSE,156,0.0,-999.0,76,-99.99,,,-99.99,,2013-03-15 11:42:00,
2013-03-15 07:52:00,12.0,6.0,29.49,SSE,157,0.0,-999.0,76,-99.99,,,-99.99,,2013-03-15 11:52:00,
2013-03-15 08:02:00,13.0,7.0,29.54,SSE,157,0.0,-999.0,78,-99.99,,,-99.99,,2013-03-15 12:02:00,
2013-03-15 08:12:00,13.0,7.0,29.54,SSE,157,0.0,-999.0,78,-99.99,,,-99.99,,2013-03-15 12:12:00,
2013-03-15 08:23:00,15.0,8.0,29.48,SW,226,0.0,-999.0,73,-99.99,,,-99.99,,2013-03-15 12:23:00,
2013-03-15 08:32:00,15.0,8.0,29.53,SW,226,0.0,-999.0,73,-99.99,,,-99.99,,2013-03-15 12:32:00,
2013-03-15 08:42:00,15.0,8.0,29.53,SW,226,0.0,-999.0,73,-99.99,,,-99.99,,2013-03-15 12:42:00,
2013-03-15 08:52:00,16.0,8.0,29.48,NNE,33,0.0,-999.0,70,-99.99,,,-99.99,,2013-03-15 12:52:00,
2013-03-15 09:02:00,16.0,8.0,29.53,NE,34,1.0,-999.0,69,-99.99,,,-99.99,,2013-03-15 13:02:00,
2013-03-15 09:12:00,16.0,8.0,29.53,NE,34,1.0,-999.0,69,-99.99,,,-99.99,,2013-03-15 13:12:00,
2013-03-15 09:22:00,18.0,9.0,29.47,NNE,22,0.0,-999.0,67,-99.99,,,-99.99,,2013-03-15 13:22:00,
2013-03-15 09:32:00,18.0,9.0,29.52,NNE,22,1.0,-999.0,66,-99.99,,,-99.99,,2013-03-15 13:32:00,
2013-03-15 09:42:00,18.0,9.0,29.52,NNE,22,1.0,-999.0,66,-99.99,,,-99.99,,2013-03-15 13:42:00,
2013-03-15 09:53:00,19.0,9.0,29.46,East,98,2.0,-999.0,64,-99.99,,,-99.99,,2013-03-15 13:53:00,
2013-03-15 10:02:00,19.0,9.0,29.50,NNE,33,1.0,-999.0,63,-99.99,,,-99.99,,2013-03-15 14:02:00,
2013-03-15 10:12:00,19.0,9.0,29.50,NNE,33,1.0,-999.0,63,-99.99,,,-99.99,,2013-03-15 14:12:00,
2013-03-15 10:22:00,20.0,9.0,29.44,NNE,25,2.0,-999.0,63,-99.99,,,-99.99,,2013-03-15 14:22:00,
2013-03-15 10:32:00,20.0,9.0,29.48,East,95,1.0,-999.0,63,-99.99,,,-99.99,,2013-03-15 14:32:00,
2013-03-15 10:42:00,20.0,9.0,29.48,East,95,1.0,-999.0,63,-99.99,,,-99.99,,2013-03-15 14:42:00,
2013-03-15 10:53:00,21.0,10.0,29.42,ESE,113,2.0,-999.0,61,-99.99,,,-99.99,,2013-03-15 14:53:00,
2013-03-15 11:02:00,21.0,9.0,29.47,ESE,105,1.0,-999.0,60,-99.99,,,-99.99,,2013-03-15 15:02:00,
2013-03-15 11:13:00,21.0,9.0,29.47,ESE,105,1.0,-999.0,60,-99.99,,,-99.99,,2013-03-15 15:13:00,
2013-03-15 11:23:00,23.0,10.0,29.41,ESE,118,3.0,-999.0,57,-99.99,,,-99.99,,2013-03-15 15:23:00,
2013-03-15 11:33:00,22.0,9.0,29.46,East,99,2.0,-999.0,57,-99.99,,,-99.99,,2013-03-15 15:33:00,
2013-03-15 11:43:00,22.0,9.0,29.46,East,99,2.0,-999.0,57,-99.99,,,-99.99,,2013-03-15 15:43:00,
2013-03-15 11:53:00,24.0,10.0,29.39,ENE,72,1.0,-999.0,54,-99.99,,,-99.99,,2013-03-15 15:53:00,
2013-03-15 12:03:00,24.0,9.0,29.43,East,99,3.0,-999.0,52,-99.99,,,-99.99,,2013-03-15 16:03:00,
2013-03-15 12:13:00,24.0,9.0,29.43,East,99,3.0,-999.0,52,-99.99,,,-99.99,,2013-03-15 16:13:00,
2013-03-15 12:23:00,25.0,9.0,29.37,NE,47,3.0,-999.0,50,-99.99,,,-99.99,,2013-03-15 16:23:00,
2013-03-15 12:32:00,26.0,9.0,29.41,East,93,1.0,-999.0,47,-99.99,,,-99.99,,2013-03-15 16:32:00,
2013-03-15 12:42:00,26.0,9.0,29.41,East,93,1.0,-999.0,47,-99.99,,,-99.99,,2013-03-15 16:42:00,
2013-03-15 12:53:00,27.0,9.0,29.35,NNW,334,4.0,-999.0,46,-99.99,,,-99.99,,2013-03-15 16:53:00,
2013-03-15 13:02:00,28.0,9.0,29.39,ENE,74,3.0,-999.0,45,-99.99,,,-99.99,,2013-03-15 17:02:00,
2013-03-15 13:12:00,28.0,9.0,29.39,ENE,74,3.0,-999.0,45,-99.99,,,-99.99,,2013-03-15 17:12:00,
2013-03-15 13:22:00,29.0,10.0,29.33,SE,145,2.0,-999.0,45,-99.99,,,-99.99,,2013-03-15 17:22:00,
2013-03-15 13:32:00,29.0,10.0,29.37,East,84,1.0,-999.0,44,-99.99,,,-99.99,,2013-03-15 17:32:00,
2013-03-15 13:42:00,29.0,10.0,29.37,East,84,1.0,-999.0,44,-99.99,,,-99.99,,2013-03-15 17:42:00,
2013-03-15 13:53:00,30.0,11.0,29.31,ESE,111,2.0,-999.0,45,-99.99,,,-99.99,,2013-03-15 17:53:00,
2013-03-15 14:03:00,30.0,11.0,29.36,SSE,168,3.0,-999.0,45,-99.99,,,-99.99,,2013-03-15 18:03:00,
2013-03-15 14:12:00,30.0,11.0,29.36,SSE,168,3.0,-999.0,45,-99.99,,,-99.99,,2013-03-15 18:12:00,
2013-03-15 14:22:00,30.0,12.0,29.29,ESE,107,2.0,-999.0,46,-99.99,,,-99.99,,2013-03-15 18:22:00,
2013-03-15 14:32:00,31.0,13.0,29.33,SE,128,3.0,-999.0,47,-99.99,,,-99.99,,2013-03-15 18:32:00,
2013-03-15 14:42:00,31.0,13.0,29.33,SE,128,3.0,-999.0,47,-99.99,,,-99.99,,2013-03-15 18:42:00,
2013-03-15 14:53:00,32.0,14.0,29.27,SE,136,2.0,-999.0,46,-99.99,,,-99.99,,2013-03-15 18:53:00,
2013-03-15 15:02:00,32.0,13.0,29.31,East,85,1.0,-999.0,45,-99.99,,,-99.99,,2013-03-15 19:02:00,
2013-03-15 15:12:00,32.0,13.0,29.31,East,85,1.0,-999.0,45,-99.99,,,-99.99,,2013-03-15 19:12:00,
2013-03-15 15:23:00,31.0,13.0,29.30,NNW,331,2.0,-999.0,46,-99.99,,,-99.99,,2013-03-15 19:23:00,
2013-03-15 15:32:00,31.0,13.0,29.30,NNW,331,2.0,-999.0,46,-99.99,,,-99.99,,2013-03-15 19:32:00,
2013-03-15 15:42:00,31.0,13.0,29.30,NNW,331,2.0,-999.0,46,-99.99,,,-99.99,,2013-03-15 19:42:00,
2013-03-15 15:53:00,32.0,13.0,29.24,SE,127,0.0,-999.0,45,-99.99,,,-99.99,,2013-03-15 19:53:00,
2013-03-15 16:02:00,32.0,14.0,29.28,SSE,155,0.0,-999.0,46,-99.99,,,-99.99,,2013-03-15 20:02:00,
2013-03-15 16:12:00,32.0,14.0,29.28,SSE,155,0.0,-999.0,46,-99.99,,,-99.99,,2013-03-15 20:12:00,
2013-03-15 16:22:00,33.0,13.0,29.23,East,89,2.0,-999.0,44,-99.99,,,-99.99,,2013-03-15 20:22:00,
2013-03-15 16:32:00,33.0,15.0,29.28,WSW,238,3.0,-999.0,47,-99.99,,,-99.99,,2013-03-15 20:32:00,
2013-03-15 16:42:00,33.0,15.0,29.28,WSW,238,3.0,-999.0,47,-99.99,,,-99.99,,2013-03-15 20:42:00,
2013-03-15 16:52:00,32.0,18.0,29.23,ENE,67,4.0,-999.0,55,-99.99,,,-99.99,,2013-03-15 20:52:00,
2013-03-15 17:02:00,31.0,18.0,29.28,ENE,66,5.0,-999.0,59,-99.99,,,-99.99,,2013-03-15 21:02:00,
2013-03-15 17:12:00,31.0,18.0,29.28,ENE,66,5.0,-999.0,59,-99.99,,,-99.99,,2013-03-15 21:12:00,
2013-03-15 17:22:00,31.0,21.0,29.23,ENE,74,3.0,-999.0,65,-99.99,,,-99.99,,2013-03-15 21:22:00,
2013-03-15 17:33:00,30.0,21.0,29.28,East,93,2.0,-999.0,69,-99.99,,,-99.99,,2013-03-15 21:33:00,
2013-03-15 17:43:00,30.0,21.0,29.28,East,93,2.0,-999.0,69,-99.99,,,-99.99,,2013-03-15 21:43:00,
2013-03-15 17:53:00,29.0,21.0,29.28,SE,135,1.0,-999.0,73,-99.99,,,-99.99,,2013-03-15 21:53:00,
2013-03-15 18:14:00,29.0,23.0,29.28,SE,138,1.0,-999.0,77,-99.99,,,-99.99,,2013-03-15 22:14:00,
2013-03-15 18:22:00,29.0,24.0,29.23,SE,132,0.0,-999.0,80,-99.99,,,-99.99,,2013-03-15 22:22:00,
2013-03-15 18:32:00,29.0,24.0,29.28,ESE,114,0.0,-999.0,81,-99.99,,,-99.99,,2013-03-15 22:32:00,
2013-03-15 18:42:00,29.0,24.0,29.28,ESE,114,0.0,-999.0,81,-99.99,,,-99.99,,2013-03-15 22:42:00,
2013-03-15 18:52:00,29.0,25.0,29.23,ESE,114,0.0,-999.0,84,-99.99,,,-99.99,,2013-03-15 22:52:00,
2013-03-15 19:03:00,28.0,24.0,29.28,ESE,114,0.0,-999.0,86,-99.99,,,-99.99,,2013-03-15 23:03:00,
2013-03-15 19:12:00,28.0,24.0,29.28,ESE,114,0.0,-999.0,86,-99.99,,,-99.99,,2013-03-15 23:12:00,
2013-03-15 19:22:00,28.0,25.0,29.23,ESE,120,0.0,-999.0,89,-99.99,,,-99.99,,2013-03-15 23:22:00,
2013-03-15 19:32:00,27.0,24.0,29.28,ESE,119,0.0,-999.0,89,-99.99,,,-99.99,,2013-03-15 23:32:00,
2013-03-15 19:42:00,27.0,24.0,29.28,ESE,119,0.0,-999.0,89,-99.99,,,-99.99,,2013-03-15 23:42:00,
2013-03-15 19:53:00,28.0,25.0,29.24,ESE,119,0.0,-999.0,89,-99.99,,,-99.99,,2013-03-15 23:53:00,
2013-03-15 20:03:00,27.0,24.0,29.28,ESE,119,0.0,-999.0,90,-99.99,,,-99.99,,2013-03-16 00:03:00,
2013-03-15 20:12:00,27.0,24.0,29.28,ESE,119,0.0,-999.0,90,-99.99,,,-99.99,,2013-03-16 00:12:00,
2013-03-15 20:22:00,28.0,25.0,29.24,ESE,119,0.0,-999.0,90,-99.99,,,-99.99,,2013-03-16 00:22:00,
2013-03-15 20:32:00,27.0,24.0,29.29,ESE,119,0.0,-999.0,90,-99.99,,,-99.99,,2013-03-16 00:32:00,
2013-03-15 20:42:00,27.0,24.0,29.29,ESE,119,0.0,-999.0,90,-99.99,,,-99.99,,2013-03-16 00:42:00,
2013-03-15 20:52:00,27.0,25.0,29.30,ESE,119,0.0,-999.0,91,-99.99,,,-99.99,,2013-03-16 00:52:00,
2013-03-15 21:03:00,27.0,25.0,29.30,ESE,119,0.0,-999.0,91,-99.99,,,-99.99,,2013-03-16 01:03:00,
2013-03-15 21:12:00,27.0,25.0,29.30,ESE,119,0.0,-999.0,91,-99.99,,,-99.99,,2013-03-16 01:12:00,
2013-03-15 21:22:00,28.0,26.0,29.26,ESE,119,0.0,-999.0,91,-99.99,,,-99.99,,2013-03-16 01:22:00,
2013-03-15 21:32:00,27.0,25.0,29.31,SE,137,0.0,-999.0,92,-99.99,,,-99.99,,2013-03-16 01:32:00,
2013-03-15 21:42:00,27.0,25.0,29.31,SE,137,0.0,-999.0,92,-99.99,,,-99.99,,2013-03-16 01:42:00,
2013-03-15 21:53:00,28.0,25.0,29.28,SSE,162,2.0,-999.0,90,-99.99,,,-99.99,,2013-03-16 01:53:00,
2013-03-15 22:02:00,27.0,25.0,29.32,East,98,1.0,-999.0,91,-99.99,,,-99.99,,2013-03-16 02:02:00,
2013-03-15 22:12:00,27.0,25.0,29.32,East,98,1.0,-999.0,91,-99.99,,,-99.99,,2013-03-16 02:12:00,
2013-03-15 22:23:00,27.0,24.0,29.28,SSE,165,0.0,-999.0,89,-99.99,,,-99.99,,2013-03-16 02:23:00,
2013-03-15 22:33:00,26.0,23.0,29.33,South,191,0.0,-999.0,88,-99.99,,,-99.99,,2013-03-16 02:33:00,
2013-03-15 22:43:00,26.0,23.0,29.33,South,191,0.0,-999.0,88,-99.99,,,-99.99,,2013-03-16 02:43:00,
2013-03-15 22:52:00,26.0,22.0,29.29,SSW,192,0.0,-999.0,84,-99.99,,,-99.99,,2013-03-16 02:52:00,
2013-03-15 23:02:00,25.0,21.0,29.34,SSW,195,1.0,-999.0,83,-99.99,,,-99.99,,2013-03-16 03:02:00,
2013-03-15 23:12:00,25.0,21.0,29.34,SSW,195,1.0,-999.0,83,-99.99,,,-99.99,,2013-03-16 03:12:00,
2013-03-15 23:22:00,25.0,20.0,29.35,South,181,0.0,-999.0,82,-99.99,,,-99.99,,2013-03-16 03:22:00,
2013-03-15 23:32:00,25.0,20.0,29.35,South,181,0.0,-999.0,82,-99.99,,,-99.99,,2013-03-16 03:32:00,
2013-03-15 23:43:00,25.0,20.0,29.35,South,181,0.0,-999.0,82,-99.99,,,-99.99,,2013-03-16 03:43:00,
2013-03-15 23:53:00,25.0,20.0,29.32,South,184,0.0,-999.0,82,-99.99,,,-99.99,,2013-03-16 03:53:00,